Location: *
(51.2167°N, 10.0667°E)
Time: 23:53:43
(UTC+00:00)

NOSS 3-1 (C) - Pass Details

Date: 12 December 2019
Orbit: 763 x 1445 km, 63.4° (Epoch: 16 January)

Event Time Altitude Azimuth Distance (km) Brightness Sun altitude
Rises 16:17:20 0° 307° (NW) 3,716 7.0 -9.6°
Reaches altitude 10° 16:19:58 10° 315° (NW) 2,863 6.2 -9.9°
Maximum altitude 16:26:23 40° 24° (NNE) 1,674 4.4 -10.9°
Enters shadow 16:33:25 12° 90° (E) 3,195 5.6 -11.9°
